Location: Ferma
(41.9500°N, 44.5167°E)
Time: 07:57:17
(UTC+00:00)

Cosmos 220 Rocket - Pass Details

Date: 03 June 2022
Orbit: 572 x 614 km, 74.0° (Epoch: 02 July)

Event Time Altitude Azimuth Distance (km) Brightness Sun altitude
Exits shadow 18:55:02 41° 105° (ESE) 841 4.4 -19.5°
Maximum altitude 18:55:04 41° 104° (ESE) 841 4.4 -19.5°
Drops below altitude 10° 18:59:00 10° 34° (NE) 1,887 6.9 -19.8°
Sets 19:01:18 0° 27° (NNE) 2,793 7.9 -20.0°
